Location: Boissi�res
(45.2500°N, 2.3667°E)
Time: 10:58:49
(UTC+00:00)

ERS-2 - Pass Details

Date: 03 March 2021
Orbit: 492 x 496 km, 98.6° (Epoch: 17 April)

Event Time Altitude Azimuth Distance (km) Brightness Sun altitude
Rises 18:23:06 0° 19° (NNE) 2,594 5.6 -8.3°
Reaches altitude 10° 18:25:15 10° 26° (NNE) 1,706 4.6 -8.7°
Maximum altitude 18:28:48 46° 101° (E) 673 2.3 -9.3°
Drops below altitude 10° 18:32:19 10° 176° (S) 1,693 4.8 -9.9°
Sets 18:34:26 0° 182° (S) 2,570 5.8 -10.3°
